Location: Moscow Pond
(43.6842°N, 73.2366°W)
Time: 23:16:12
(UTC+00:00)

Lacrosse 5 rocket - Pass Details

Date: 08 November 2025
Orbit: 406 x 494 km, 57.0° (Epoch: 05 December)

Event Time Altitude Azimuth Distance (km) Brightness Sun altitude
Exits shadow 09:58:51 10° 354° (N) 1,527 3.5 -18.2°
Drops below altitude 10° 09:58:56 10° 356° (N) 1,530 3.5 -18.2°
Sets 10:02:55 0° 43° (NE) 2,370 5.1 -17.5°
